Погода в Нижнем Енангске

Россия / Вологодская область     59°59′32″N   46°23′56″E
темп.,
°C
ветер,
м/с
пор.,
м/с
влажн.,
%
обл.,
%
осадки,
мм/ч
давл.,
гПа
погр.,
м
21 апреля, ср
ср2100:00−1вюв26843 0.0 102894
03:00−1вюв31182100 0.0 1027224
06:00+2вюв41463100 0.0 1024517
09:00+7юв6164399 0.0 10221097
12:00+9юв71639100 0.0 10191315
15:00+5юв81675100 0.1 10181075
18:00+2юв71684100 0.0 1017986
21:00+2ююв61490100 0.3 1016922
22 апреля, чт
чт2200:00+2ююв51496100 0.1 1014761
03:00+2ююв51397100 0.4 1014712
06:00+2ю51297100 0.8 1013748
09:00+3ююз41197100 1.8 1015512
12:00+7ююз5975100 0.1 10161116
15:00+8ююз4971100 0.4 10171272
18:00+7ююз3782100 0.3 1017913
21:00+5ю31091100 0.3 1019452
23 апреля, пт
пт2300:00+6ююз4108565 0.0 1019556
03:00+3ю389418 0.0 1020221
06:00+5ю3108798 0.0 1021344
09:00+8ю4975100 0.0 1022443
12:00+10ю41067100 0.0 1021765
15:00+11ююв41067100 0.0 1021798
18:00+11ююв596622 0.0 1021902
21:00+9ююв4127799 0.0 1021519
24 апреля, сб
сб2400:00+7юв3108686 0.0 1021361
03:00+7юв3988100 0.0 1020340
06:00+7юв398888 0.2 1019385
09:00+11юв566644 0.2 10181004
12:00+11юв4658100 0.1 10161602
15:00+10вюв3758100 0.1 10151292
18:00+9юв586756 0.0 1013915
21:00+7вюв3881100 0.1 1012521
25 апреля, вс
вс2500:00+6вюв4989100 0.1 1009485
03:00+6вюв4992100 0.1 1007586
06:00+6вюв4993100 0.1 1005590
09:00+7вюв4887100 0.1 1003864
12:00+5ю4692100 0.7 1003963
15:00+4юз41089100 1.7 1004853
18:00+6юз3773100 0.1 1005600
21:00+3ююз3988100 0.1 1006210